Location: Newark
(49.8969°N, 3.3422°E)
Time: 08:00:01
(UTC+00:00)

Vanguard 1 Rocket - Visible Passes

Search period start: 19 January 2020 00:00
Search period end: 29 January 2020 00:00
Orbit: 650 x 4226 km, 34.3° (Epoch: 17 January)

Date Brightness Start Highest point End Pass type
(mag) Time Alt. Az. Time Alt. Az. Time Alt. Az.
19 Jan 12.0 17:01:32 10° W 17:18:46 30° SW 17:38:33 10° SSE visible
20 Jan 12.2 18:20:50 10° W 18:33:13 17° SW 18:46:19 10° SSW visible
21 Jan 12.2 17:04:58 10° W 17:20:26 25° SW 17:38:25 10° S visible
22 Jan 12.4 18:27:37 10° WSW 18:34:44 12° SW 18:42:10 10° SW visible
23 Jan 12.3 17:09:01 10° W 17:22:08 20° SW 17:37:23 10° S visible
25 Jan 12.5 17:14:15 10° WSW 17:23:54 15° SW 17:34:50 10° SSW visible
